Flag for Bulgaria Weather past 2 weeks in Plovdiv, Bulgaria

Now
63 °F

Rain. Mostly cloudy.


Feels Like: 63 °F
Forecast: 57 / 71 °F
Wind: 3 mph from East

Location: Plovdiv Airport

Current Time: Sep 16, 2014 at 4:54:02 AM

Latest Report: Sep 16, 2014 at 4:00 AM


Visibility: 2 mi

Pressure: 29.95 "Hg

Humidity: 100%

Dew point: 63 °F

Location of PlovdivLocation

Historic Weather in Plovdiv — Graph

°F

Plovdiv temperature yesterday

Maximum temperature yesterday: 77 °F (at 3:00 PM)
Minimum temperature yesterday: 63 °F (at 2:00 AM)
Average temperature yesterday: 68 °F

Past Weeks' High & Low Weather Summary

 TemperatureHumidityPressure
High82 °F (Sep 1, 3:00 PM)100% (Sep 2, 4:00 AM)30.09 "Hg (Sep 2, 4:00 AM)
Low55 °F (Sep 1, 6:00 AM)37% (Sep 8, 3:00 PM)29.74 "Hg (Sep 2, 4:00 PM)
Average69 °F80%29.92 "Hg
* Reported Sep 1 3:00 AM — Sep 16 3:00 AM, Plovdiv, Weather by CustomWeather, © 2014

Note: Actual official high and low records may vary slightly from our data, if they occured in-between our weather recording intervals... More about our weather records

Advertising

Plovdiv weather history for previous 24 hours

 ConditionsComfort  
Time TempWeatherWind HumidityBarometerVisibility
3:00 AM
Sep 16
63 °FDrizzle. Fog.No wind100%29.98 "Hg2 mi
2:00 AM63 °FRain. Mostly cloudy.8 mph100%29.98 "Hg2 mi
1:00 AM63 °FLight rain. Mostly cloudy.No wind100%29.98 "Hg4 mi
12:00 AM63 °FRain. Mostly cloudy.No wind100%29.98 "Hg2 mi
11:00 PM
Sep 15
63 °FLight rain. Overcast.1 mph100%29.98 "Hg6 mi
10:00 PM64 °FRain showers. Mostly cloudy.8 mph100%29.98 "Hg3 mi
9:45 PM64 °FLots of rain. Mostly cloudy.6 mph100%29.98 "Hg2 mi
9:00 PM64 °FSprinkles. Partly cloudy.3 mph100%29.98 "Hg4 mi
8:00 PM66 °FThunderstorms. More clouds than sun.6 mph94%29.95 "Hg3 mi
7:04 PM68 °FThunderstorms. More clouds than sun.8 mph88%29.92 "Hg1 mi
7:00 PM72 °FThunderstorms. Broken clouds.8 mph78%29.92 "HgN/A
6:00 PM75 °FBroken clouds.10 mph61%29.92 "HgN/A
5:00 PM77 °FBroken clouds.13 mph61%29.92 "HgN/A
4:00 PM77 °FBroken clouds.8 mph61%29.92 "HgN/A
3:00 PM77 °FSprinkles. Partly sunny.8 mph57%29.95 "HgN/A
2:00 PM75 °FBroken clouds.6 mph65%29.98 "HgN/A
1:00 PM75 °FScattered clouds.8 mph69%29.98 "HgN/A
12:00 PM72 °FBroken clouds.8 mph78%29.98 "HgN/A
11:00 AM70 °FPartly sunny.6 mph83%29.98 "HgN/A
10:00 AM64 °FBroken clouds.6 mph94%30.01 "HgN/A
9:00 AM64 °FPartly sunny.3 mph88%29.98 "HgN/A
8:00 AM63 °FPartly sunny.3 mph88%29.98 "HgN/A
7:00 AM63 °FPassing clouds.6 mph83%29.98 "HgN/A
6:00 AM63 °FPassing clouds.6 mph88%29.98 "HgN/A
5:00 AM63 °FClear.8 mph88%29.98 "Hg10 mi
4:00 AM64 °FClear.6 mph88%29.98 "Hg10 mi
Weather by CustomWeather, © 2014

See weather overviewHow to use our weather pages